• In Uzbekistan
  • List of Countries
  • For 7 days
  • Water Temperature
  • Satellite Maps
  • Weather Map
  • Weather Widgets
  • user-avatar
    Login

    Hourly Weather Ray

    Today, 16 February, Saturday

    Time Temperature Precipitation Wind Pressure Humidity
    00:00 -1°C° 0 mm 5 mps 747 mmHg 95%
    01:00 -1°C° 0 mm 5 mps 747 mmHg 96%
    02:00 -1°C° 0 mm 4 mps 747 mmHg 96%
    03:00 -1°C° 0 mm 4 mps 747 mmHg 96%
    04:00 -1°C° 0 mm 4 mps 746 mmHg 96%
    05:00 -1°C° 0 mm 4 mps 746 mmHg 96%
    06:00 -1°C° 0 mm 4 mps 746 mmHg 96%
    07:00 -1°C° 0 mm 4 mps 746 mmHg 96%
    08:00 -1°C° 0 mm 4 mps 746 mmHg 95%
    09:00 -1°C° 0 mm 4 mps 746 mmHg 96%
    10:00 -1°C° 0 mm 4 mps 746 mmHg 97%
    11:00 -1°C° 0 mm 5 mps 746 mmHg 98%
    12:00 -1°C° 0 mm 5 mps 745 mmHg 98%
    13:00 -1°C° 0 mm 5 mps 745 mmHg 98%
    14:00 -1°C° 0 mm 4 mps 745 mmHg 98%
    15:00 -1°C° 0 mm 5 mps 745 mmHg 94%
    16:00 -1°C° 0 mm 5 mps 744 mmHg 90%
    17:00 -1°C° 0 mm 5 mps 744 mmHg 87%
    18:00 -1°C° 0 mm 5 mps 744 mmHg 85%
    19:00 -1°C° 0 mm 5 mps 743 mmHg 84%
    20:00 -1°C° 0 mm 5 mps 743 mmHg 82%
    21:00 -1°C° 0 mm 5 mps 742 mmHg 81%
    22:00 -1°C° 0 mm 5 mps 742 mmHg 79%
    23:00 -1°C° 0 mm 5 mps 741 mmHg 78%

    Tomorrow, 17 February, Sunday

    Time Temperature Precipitation Wind Pressure Humidity
    00:00 -2°C° 0 mm 6 mps 741 mmHg 78%
    01:00 -2°C° 0 mm 6 mps 740 mmHg 79%
    02:00 -2°C° 0 mm 6 mps 740 mmHg 80%
    03:00 -2°C° 0 mm 6 mps 739 mmHg 81%
    04:00 -2°C° 0 mm 6 mps 739 mmHg 83%
    05:00 -2°C° 0 mm 6 mps 738 mmHg 84%
    06:00 -2°C° 0 mm 6 mps 738 mmHg 86%
    07:00 -2°C° 0 mm 6 mps 738 mmHg 89%
    08:00 -2°C° 0 mm 7 mps 738 mmHg 91%
    09:00 -2°C° 0 mm 6 mps 739 mmHg 92%
    10:00 -1°C° 0 mm 6 mps 739 mmHg 94%
    11:00 -1°C° 0 mm 6 mps 739 mmHg 96%
    12:00 -1°C° 0 mm 6 mps 739 mmHg 93%
    13:00 -1°C° 0 mm 6 mps 740 mmHg 91%
    14:00 0°C° 0 mm 7 mps 740 mmHg 88%
    15:00 -1°C° 0 mm 6 mps 740 mmHg 84%
    16:00 -2°C° 0 mm 6 mps 740 mmHg 80%
    17:00 -2°C° 0 mm 6 mps 741 mmHg 76%
    18:00 -3°C° 0 mm 6 mps 741 mmHg 77%
    19:00 -3°C° 0 mm 6 mps 742 mmHg 79%
    20:00 -4°C° 0 mm 5 mps 742 mmHg 81%
    21:00 -4°C° 0 mm 5 mps 743 mmHg 82%
    22:00 -5°C° 0 mm 5 mps 743 mmHg 84%
    23:00 -4°C° 0 mm 4 mps 744 mmHg 86%

    Day after tomorrow, 18 February, Monday

    Time Temperature Precipitation Wind Pressure Humidity
    00:00 -4°C° 0 mm 4 mps 744 mmHg 86%
    01:00 -5°C° 0 mm 4 mps 745 mmHg 86%
    02:00 -5°C° 0 mm 4 mps 745 mmHg 87%
    03:00 -5°C° 0 mm 4 mps 746 mmHg 87%
    04:00 -5°C° 0 mm 4 mps 746 mmHg 87%
    05:00 -7°C° 0 mm 4 mps 746 mmHg 87%
    06:00 -6°C° 0 mm 3 mps 747 mmHg 87%
    07:00 -6°C° 0 mm 3 mps 747 mmHg 88%
    08:00 -6°C° 0 mm 3 mps 748 mmHg 88%
    09:00 -6°C° 0 mm 3 mps 748 mmHg 85%
    10:00 -5°C° 0 mm 3 mps 748 mmHg 81%
    11:00 -3°C° 0 mm 2 mps 749 mmHg 77%
    12:00 -3°C° 0 mm 2 mps 749 mmHg 74%
    13:00 -3°C° 0 mm 2 mps 749 mmHg 72%
    14:00 0°C° 0 mm 1 mps 749 mmHg 69%
    15:00 -1°C° 0 mm 1 mps 749 mmHg 72%
    16:00 -1°C° 0 mm 1 mps 749 mmHg 75%
    17:00 -2°C° 0 mm 1 mps 749 mmHg 77%
    18:00 -2°C° 0 mm 1 mps 749 mmHg 78%
    19:00 -2°C° 0 mm 1 mps 749 mmHg 78%
    20:00 -5°C° 0 mm 2 mps 749 mmHg 79%
    21:00 -5°C° 0 mm 2 mps 749 mmHg 80%
    22:00 -5°C° 0 mm 2 mps 749 mmHg 80%
    23:00 -6°C° 0 mm 3 mps 749 mmHg 81%

    19 February, Tuesday

    Time Temperature Precipitation Wind Pressure Humidity
    00:00 -6°C° 0 mm 3 mps 749 mmHg 80%
    01:00 -7°C° 0 mm 4 mps 749 mmHg 80%
    02:00 -7°C° 0 mm 4 mps 748 mmHg 79%
    03:00 -7°C° 0 mm 4 mps 748 mmHg 79%
    04:00 -7°C° 0 mm 5 mps 747 mmHg 79%
    05:00 -7°C° 0 mm 5 mps 747 mmHg 78%
    06:00 -7°C° 0 mm 5 mps 747 mmHg 78%
    07:00 -7°C° 0 mm 5 mps 746 mmHg 78%
    08:00 -7°C° 0 mm 5 mps 746 mmHg 78%
    09:00 -5°C° 0 mm 5 mps 746 mmHg 75%
    10:00 -4°C° 0 mm 6 mps 745 mmHg 72%
    11:00 -3°C° 0 mm 6 mps 745 mmHg 69%
    12:00 -3°C° 0 mm 6 mps 744 mmHg 68%
    13:00 -2°C° 0 mm 6 mps 744 mmHg 67%
    14:00 -2°C° 0 mm 7 mps 743 mmHg 66%
    15:00 -2°C° 0 mm 7 mps 743 mmHg 67%
    16:00 -2°C° 0 mm 7 mps 742 mmHg 68%
    17:00 -3°C° 0 mm 7 mps 741 mmHg 69%
    18:00 -3°C° 0 mm 7 mps 741 mmHg 70%
    19:00 -3°C° 0 mm 7 mps 740 mmHg 70%
    20:00 -3°C° 0 mm 7 mps 740 mmHg 71%
    21:00 -3°C° 0 mm 7 mps 739 mmHg 76%
    22:00 -3°C° 0 mm 7 mps 739 mmHg 82%
    23:00 -2°C° 0 mm 7 mps 738 mmHg 87%

    20 February, Wednesday

    Time Temperature Precipitation Wind Pressure Humidity
    00:00 -2°C° 0.1 mm 6 mps 738 mmHg 88%
    01:00 -2°C° 0.1 mm 6 mps 737 mmHg 90%
    02:00 -2°C° 0.1 mm 6 mps 737 mmHg 92%
    03:00 -2°C° 0.3 mm 6 mps 737 mmHg 92%
    04:00 -1°C° 0.3 mm 5 mps 736 mmHg 92%
    05:00 -1°C° 0.3 mm 5 mps 736 mmHg 92%
    06:00 -1°C° 0 mm 5 mps 736 mmHg 91%
    07:00 -1°C° 0 mm 5 mps 736 mmHg 90%
    08:00 0°C° 0 mm 5 mps 736 mmHg 89%
    09:00 -1°C° 0 mm 6 mps 736 mmHg 88%
    10:00 -1°C° 0 mm 6 mps 736 mmHg 87%
    11:00 0°C° 0 mm 7 mps 736 mmHg 86%
    12:00 0°C° 0 mm 7 mps 735 mmHg 84%
    13:00 0°C° 0 mm 7 mps 735 mmHg 82%
    14:00 0°C° 0 mm 7 mps 735 mmHg 80%
    15:00 0°C° 0.1 mm 7 mps 735 mmHg 80%
    16:00 -1°C° 0.1 mm 7 mps 734 mmHg 80%
    17:00 -1°C° 0.1 mm 7 mps 734 mmHg 81%
    18:00 -1°C° 0.3 mm 7 mps 734 mmHg 81%
    19:00 -1°C° 0.3 mm 7 mps 734 mmHg 82%
    20:00 -1°C° 0.3 mm 7 mps 734 mmHg 83%
    21:00 -1°C° 0 mm 7 mps 735 mmHg 84%
    22:00 -2°C° 0 mm 7 mps 735 mmHg 84%
    23:00 -2°C° 0 mm 7 mps 735 mmHg 85%

    21 February, Thursday

    Time Temperature Precipitation Wind Pressure Humidity
    00:00 -4°C° 0 mm 8 mps 735 mmHg 81%
    01:00 -5°C° 0 mm 8 mps 736 mmHg 78%
    02:00 -6°C° 0 mm 8 mps 736 mmHg 75%
    03:00 -6°C° 0.1 mm 8 mps 736 mmHg 74%
    04:00 -7°C° 0.1 mm 8 mps 737 mmHg 73%
    05:00 -7°C° 0.1 mm 8 mps 737 mmHg 71%
    06:00 -8°C° 0.1 mm 8 mps 738 mmHg 70%
    07:00 -8°C° 0.1 mm 8 mps 738 mmHg 68%
    08:00 -10°C° 0.1 mm 8 mps 739 mmHg 67%
    09:00 -10°C° 0 mm 8 mps 740 mmHg 64%
    10:00 -10°C° 0 mm 8 mps 740 mmHg 62%
    11:00 -10°C° 0 mm 8 mps 741 mmHg 59%
    12:00 -8°C° 0 mm 8 mps 741 mmHg 58%
    13:00 -8°C° 0 mm 8 mps 741 mmHg 58%
    14:00 -8°C° 0 mm 8 mps 742 mmHg 57%
    15:00 -8°C° 0 mm 7 mps 742 mmHg 58%
    16:00 -8°C° 0 mm 7 mps 743 mmHg 59%
    17:00 -9°C° 0 mm 7 mps 743 mmHg 60%
    18:00 -9°C° 0 mm 7 mps 744 mmHg 62%
    19:00 -9°C° 0 mm 7 mps 744 mmHg 63%
    20:00 -11°C° 0 mm 7 mps 745 mmHg 64%
    21:00 -10°C° 0 mm 6 mps 745 mmHg 65%
    22:00 -10°C° 0 mm 6 mps 746 mmHg 65%
    23:00 -11°C° 0 mm 6 mps 746 mmHg 65%
    Show more